COSMOS 1067

Satellite information

Favourite Embed

Satellite Type and Status

PAYLOADIN ORBIT

Key statistics

Satellite COSMOS 1067 at a glance.

Uptime

16996

Days in orbit

Revolutions

≈ 13.2

Per day

Orbit

LEO

Low Earth Orbit

Inclination

83.0

Latest

Satellite identification and parameters

Extended collection of information and parameters for COSMOS 1067.

Object identification

Identified? True

Debris? False

Object name: COSMOS 1067

International designator: 1978-122A

Object number (NORAD): 11168

Object ID (CCSDS): 11168

Country: COMMONWEALTH OF INDEPENDENT STATES (CIS)

Current information (Y/N): Y

RCS size: LARGE

Orbital parameters

Period: 109.072 minutes

Inclination: 82.9714 deg

SMA: 7562.006 km

Apoapsis: 1210.85 km

Periapsis: 1156.892 km

RAAN: 85.6687 deg

Eccentricy: 0.0035677

Argument of periapsis: 341.3179 deg

Mean anomaly: 30.179 deg

Mean motion: 13.20222812 rev/day

Mean motion (dot): 0.00000034 rev/day2

B* drag term: 0.000051609 1/REarth

Two-line elements (TLE)

Creation date: July 8, 2025, 2:27 a.m.

Reference frame: TEME

Reference center: EARTH

Epoch: July 7, 2025, 11:21 p.m. UTC

TLE line 0: 0 COSMOS 1067

TLE line 1: 1 11168U 78122A 25188.97308767 .00000034 00000-0 51609-4 0 9990

TLE line 2: 2 11168 82.9714 85.6687 0035677 341.3179 30.1790 13.20222812225682

Live tracking on map

Real-time ground track for satellite COSMOS 1067.

In-orbit conjunctions

There are no conjunctions computed for COSMOS 1067, at the moment. Check back to stay up to date, as we update our databases every day.

Go to all conjunctions

Associated space launch

High-resolution film-return Zenit reconnaissance satellite

COSMOS 1067 was lifted into orbit during the mission ‘Soyuz U | Zenit-4MKM 25’, on board a Soyuz U space rocket.

The launch took place on Dec. 26, 1978, 3:30 p.m. from 43/4 (43R).

For more information about the launch, click the button.

Launch to space Soyuz U | Zenit-4MKM 25
Soyuz U | Zenit-4MKM 25

Agency: N/A

Status: Launch Successful

Launch date: Dec. 26, 1978, 3:30 p.m. UTC

Rocket: Soyuz U

Launch pad: 43/4 (43R)

Location: Plesetsk Cosmodrome, Russian Federation

...

Latest news about this satellite

There are no fresh news available about this satellite. Check back as we update our databases every day.


Newsletter sign-up

Weekly statistics, charts and insights to help you stay on top of the space industry.